TIME,�����g�[�mL�n,�t���O,�����g�[�mMJ�n,�t���O
2004/3/1 0:00,0.005661055,0,0.831042874,0
2004/3/1 0:15,0.00566412,0,0.831492816,0
2004/3/1 0:30,0.005935372,0,0.871312683,0
2004/3/1 0:45,0.005661055,0,0.831042874,0
2004/3/1 1:00,0.005662587,0,0.831267845,0
2004/3/1 1:15,0.005661055,0,0.831042874,0
2004/3/1 1:30,0.005662587,0,0.831267845,0
2004/3/1 1:45,0.005679445,0,0.833742526,0
2004/3/1 2:00,0.00840423,0,1.233740964,0
2004/3/1 2:15,0.007158308,0,1.050839541,0
2004/3/1 2:30,0.007164438,0,1.051739425,0
2004/3/1 2:45,0.001989185,0,0.292012358,0
2004/3/1 3:00,0,0,0,0
2004/3/1 3:15,0,0,0,0
2004/3/1 3:30,0,0,0,0
2004/3/1 3:45,0,0,0,0
2004/3/1 4:00,0,0,0,0
2004/3/1 4:15,0,0,0,0
2004/3/1 4:30,0,0,0,0
2004/3/1 4:45,0,0,0,0
2004/3/1 5:00,0,0,0,0
2004/3/1 5:15,0,0,0,0
2004/3/1 5:30,0,0,0,0
2004/3/1 5:45,0,0,0,0
2004/3/1 6:00,0,0,0,0
2004/3/1 6:15,0,0,0,0
2004/3/1 6:30,0,0,0,0
2004/3/1 6:45,0,0,0,0
2004/3/1 7:00,0,0,0,0
2004/3/1 7:15,0,0,0,0
2004/3/1 7:30,0,0,0,0
2004/3/1 7:45,0,0,0,0
2004/3/1 8:00,0,0,0,0
2004/3/1 8:15,0,0,0,0
2004/3/1 8:30,0.01072137,0,1.573897116,0
2004/3/1 8:45,0.026366662,0,3.870626054,0
2004/3/1 9:00,0.02054163,0,3.015511284,0
2004/3/1 9:15,0.013441557,0,1.973220641,0
2004/3/1 9:30,0.024932242,0,3.660053198,0
2004/3/1 9:45,0.024941438,0,3.661403026,0
2004/3/1 10:00,0.015663683,0,2.299428591,0
2004/3/1 10:15,0.014109728,0,2.071307997,0
2004/3/1 10:30,0.010577315,0,1.552749842,0
2004/3/1 10:45,0.01141406,0,1.675584008,0
2004/3/1 11:00,0.011748145,0,1.724627686,0
2004/3/1 11:15,0.006598945,0,0.968725126,0
2004/3/1 11:30,0.008995775,0,1.32057977,0
2004/3/1 11:45,0.007457145,0,1.094708886,0
2004/3/1 12:00,0.006692428,0,0.982448357,0
2004/3/1 12:15,0,0,0,0
2004/3/1 12:30,0,0,0,0
2004/3/1 12:45,0,0,0,0
2004/3/1 13:00,0,0,0,0
2004/3/1 13:15,0,0,0,0
2004/3/1 13:30,0,0,0,0
2004/3/1 13:45,0,0,0,0
2004/3/1 14:00,0,0,0,0
2004/3/1 14:15,0,0,0,0
2004/3/1 14:30,0,0,0,0
2004/3/1 14:45,0,0,0,0
2004/3/1 15:00,0,0,0,0
2004/3/1 15:15,0,0,0,0
2004/3/1 15:30,0,0,0,0
2004/3/1 15:45,0,0,0,0
2004/3/1 16:00,0,0,0,0
2004/3/1 16:15,0,0,0,0
2004/3/1 16:30,0,0,0,0
2004/3/1 16:45,0,0,0,0
2004/3/1 17:00,0,0,0,0
2004/3/1 17:15,0,0,0,0
2004/3/1 17:30,0,0,0,0
2004/3/1 17:45,0,0,0,0
2004/3/1 18:00,0,0,0,0
2004/3/1 18:15,0.020411368,0,2.996388749,0
2004/3/1 18:30,0.012114412,0,1.778395755,0
2004/3/1 18:45,0.00866782,0,1.272435976,0
2004/3/1 19:00,0.008166692,0,1.198870459,0
2004/3/1 19:15,0.007444885,0,1.092909118,0
2004/3/1 19:30,0.005745342,0,0.843416279,0
2004/3/1 19:45,0.005668718,0,0.832167729,0
2004/3/1 20:00,0.010442455,0,1.532952394,0
2004/3/1 20:15,0.00810386,0,1.189646648,0
2004/3/1 20:30,0.009610307,0,1.410793141,0
2004/3/1 20:45,0.00849618,0,1.247239224,0
2004/3/1 21:00,0.005659522,0,0.830817903,0
2004/3/1 21:15,0.005661055,0,0.831042874,0
2004/3/1 21:30,0.005661055,0,0.831042874,0
2004/3/1 21:45,0.006352212,0,0.932504795,0
2004/3/1 22:00,0.00863717,0,1.267936556,0
2004/3/1 22:15,0.009907612,0,1.454437515,0
2004/3/1 22:30,0.010664668,0,1.565573189,0
2004/3/1 22:45,0.006609673,0,0.970299923,0
2004/3/1 23:00,0.007156775,0,1.05061457,0
2004/3/1 23:15,0.006376732,0,0.936104331,0
2004/3/1 23:30,0.005693237,0,0.835767265,0
2004/3/1 23:45,0.00565799,0,0.830592932,0
2004/3/2 0:00,0.005659522,0,0.830817903,0
2004/3/2 0:15,0.00565799,0,0.830592932,0
2004/3/2 0:30,0.005659522,0,0.830817903,0
2004/3/2 0:45,0.00565799,0,0.830592932,0
2004/3/2 1:00,0.005659522,0,0.830817903,0
2004/3/2 1:15,0.005659522,0,0.830817903,0
2004/3/2 1:30,0.00565799,0,0.830592932,0
2004/3/2 1:45,0.005659522,0,0.830817903,0
2004/3/2 2:00,0.00565799,0,0.830592932,0
2004/3/2 2:15,0.005659522,0,0.830817903,0
2004/3/2 2:30,0.005661055,0,0.831042874,0
2004/3/2 2:45,0.005679445,0,0.833742526,0
2004/3/2 3:00,0.005661055,0,0.831042874,0
2004/3/2 3:15,0.005667185,0,0.831942758,0
2004/3/2 3:30,0.005662587,0,0.831267845,0
2004/3/2 3:45,0.005661055,0,0.831042874,0
2004/3/2 4:00,0.011294525,0,1.65803627,0
2004/3/2 4:15,0.01519627,0,2.230812436,0
2004/3/2 4:30,0,0,0,0
2004/3/2 4:45,0,0,0,0
2004/3/2 5:00,0,0,0,0
2004/3/2 5:15,0,0,0,0
2004/3/2 5:30,0,0,0,0
2004/3/2 5:45,0,0,0,0
2004/3/2 6:00,0,0,0,0
2004/3/2 6:15,0,0,0,0
2004/3/2 6:30,0,0,0,0
2004/3/2 6:45,0,0,0,0
2004/3/2 7:00,0.000893447,0,0.131158093,0
2004/3/2 7:15,0.026639447,0,3.910670892,0
2004/3/2 7:30,0.02442805,0,3.58603774,0
2004/3/2 7:45,0.01686976,0,2.476480768,0
2004/3/2 8:00,0.01670425,0,2.4521839,0
2004/3/2 8:15,0.021010575,0,3.08435241,0
2004/3/2 8:30,0.018944765,0,2.781091502,0
2004/3/2 8:45,0.017232963,0,2.529798895,0
2004/3/2 9:00,0.015136503,0,2.222038567,0
2004/3/2 9:15,0.012929703,0,1.898080327,0
2004/3/2 9:30,0.016491233,0,2.420912931,0
2004/3/2 9:45,0.01481008,0,2.174119744,0
2004/3/2 10:00,0.011699105,0,1.717428614,0
2004/3/2 10:15,0.012537383,0,1.840487751,0
2004/3/2 10:30,0.013286775,0,1.95049857,0
2004/3/2 10:45,0.01079493,0,1.584695724,0
2004/3/2 11:00,0.009185805,0,1.348476174,0
2004/3/2 11:15,0.007657903,0,1.124180087,0
2004/3/2 11:30,0.00685334,0,1.006070312,0
2004/3/2 11:45,0.00658362,0,0.966475416,0
2004/3/2 12:00,0.006212755,0,0.912032434,0
2004/3/2 12:15,0.00734987,0,1.078960916,0
2004/3/2 12:30,0.009683867,0,1.421591749,0
2004/3/2 12:45,0.011234757,0,1.649262401,0
2004/3/2 13:00,0.01036583,0,1.521703844,0
2004/3/2 13:15,0.00593997,0,0.871987596,0
2004/3/2 13:30,0.005665652,0,0.831717787,0
2004/3/2 13:45,0,0,0,0
2004/3/2 14:00,0,0,0,0
2004/3/2 14:15,0,0,0,0
2004/3/2 14:30,0,0,0,0
2004/3/2 14:45,0,0,0,0
2004/3/2 15:00,0,0,0,0
2004/3/2 15:15,0,0,0,0
2004/3/2 15:30,0,0,0,0
2004/3/2 15:45,0,0,0,0
2004/3/2 16:00,0,0,0,0
2004/3/2 16:15,0,0,0,0
2004/3/2 16:30,0,0,0,0
2004/3/2 16:45,0,0,0,0
2004/3/2 17:00,0,0,0,0
2004/3/2 17:15,0,0,0,0
2004/3/2 17:30,0,0,0,0
2004/3/2 17:45,0,0,0,0
2004/3/2 18:00,0,0,0,0
2004/3/2 18:15,0,0,0,0
2004/3/2 18:30,0.0131795,0,1.9347506,0
2004/3/2 18:45,0.024923048,0,3.658703375,0
2004/3/2 19:00,0.021005978,0,3.083677497,0
2004/3/2 19:15,0.01858616,0,2.728448288,0
2004/3/2 19:30,0.011507542,0,1.689307239,0
2004/3/2 19:45,0.00902949,0,1.325529132,0
2004/3/2 20:00,0.00951376,0,1.396619968,0
2004/3/2 20:15,0.008344463,0,1.224967095,0
2004/3/2 20:30,0.009202663,0,1.350950855,0
2004/3/2 20:45,0.008356723,0,1.226766863,0
2004/3/2 21:00,0.009662412,0,1.418442155,0
2004/3/2 21:15,0.008008845,0,1.175698446,0
2004/3/2 21:30,0.00753377,0,1.105957436,0
2004/3/2 21:45,0.005668718,0,0.832167729,0
2004/3/2 22:00,0.003975305,0,0.583574774,0
2004/3/2 22:15,0,0,0,0
2004/3/2 22:30,0,0,0,0
2004/3/2 22:45,0,0,0,0
2004/3/2 23:00,0,0,0,0
2004/3/2 23:15,0,0,0,0
2004/3/2 23:30,0,0,0,0
2004/3/2 23:45,0,0,0,0
2004/3/3 0:00,0,0,0,0
2004/3/3 0:15,0,0,0,0
2004/3/3 0:30,0,0,0,0
2004/3/3 0:45,0,0,0,0
2004/3/3 1:00,0,0,0,0
2004/3/3 1:15,0,0,0,0
2004/3/3 1:30,0,0,0,0
2004/3/3 1:45,0,0,0,0
2004/3/3 2:00,0,0,0,0
2004/3/3 2:15,0,0,0,0
2004/3/3 2:30,0,0,0,0
2004/3/3 2:45,0,0,0,0
2004/3/3 3:00,0,0,0,0
2004/3/3 3:15,0,0,0,0
2004/3/3 3:30,0,0,0,0
2004/3/3 3:45,0,0,0,0
2004/3/3 4:00,0,0,0,0
2004/3/3 4:15,0,0,0,0
2004/3/3 4:30,0,0,0,0
2004/3/3 4:45,0,0,0,0
2004/3/3 5:00,0,0,0,0
2004/3/3 5:15,0,0,0,0
2004/3/3 5:30,0,0,0,0
2004/3/3 5:45,0,0,0,0
2004/3/3 6:00,0,0,0,0
2004/3/3 6:15,0,0,0,0
2004/3/3 6:30,0,0,0,0
2004/3/3 6:45,0,0,0,0
2004/3/3 7:00,0,0,0,0
2004/3/3 7:15,0,0,0,0
2004/3/3 7:30,0,0,0,0
2004/3/3 7:45,0,0,0,0
2004/3/3 8:00,0.008192745,0,1.202694966,0
2004/3/3 8:15,0.02394991,0,3.515846788,0
2004/3/3 8:30,0.01082558,0,1.589195144,0
2004/3/3 8:45,0.010915998,0,1.602468433,0
2004/3/3 9:00,0.008378178,0,1.229916457,0
2004/3/3 9:15,0.008014975,0,1.17659833,0
2004/3/3 9:30,0.005950698,0,0.873562393,0
2004/3/3 9:45,0.010816385,0,1.587845318,0
2004/3/3 10:00,0.008670885,0,1.272885918,0
2004/3/3 10:15,0.009788078,0,1.436889777,0
2004/3/3 10:30,0,0,0,0
2004/3/3 10:45,0,0,0,0
2004/3/3 11:00,0,0,0,0
2004/3/3 11:15,0,0,0,0
2004/3/3 11:30,0,0,0,0
2004/3/3 11:45,0,0,0,0
2004/3/3 12:00,0,0,0,0
2004/3/3 12:15,0,0,0,0
2004/3/3 12:30,0,0,0,0
2004/3/3 12:45,0,0,0,0
2004/3/3 13:00,0,0,0,0
2004/3/3 13:15,0,0,0,0
2004/3/3 13:30,0,0,0,0
2004/3/3 13:45,0,0,0,0
2004/3/3 14:00,0,0,0,0
2004/3/3 14:15,0,0,0,0
2004/3/3 14:30,0,0,0,0
2004/3/3 14:45,0,0,0,0
2004/3/3 15:00,0,0,0,0
2004/3/3 15:15,0,0,0,0
2004/3/3 15:30,0,0,0,0
2004/3/3 15:45,0,0,0,0
2004/3/3 16:00,0,0,0,0
2004/3/3 16:15,0,0,0,0
2004/3/3 16:30,0.011319045,0,1.661635806,0
2004/3/3 16:45,0.017522605,0,2.572318414,0
2004/3/3 17:00,0.009584255,0,1.406968634,0
2004/3/3 17:15,0.008206538,0,1.204719705,0
2004/3/3 17:30,0,0,0,0
2004/3/3 17:45,0,0,0,0
2004/3/3 18:00,0,0,0,0
2004/3/3 18:15,0,0,0,0
2004/3/3 18:30,0,0,0,0
2004/3/3 18:45,0,0,0,0
2004/3/3 19:00,0,0,0,0
2004/3/3 19:15,0,0,0,0
2004/3/3 19:30,0,0,0,0
2004/3/3 19:45,0,0,0,0
2004/3/3 20:00,0,0,0,0
2004/3/3 20:15,0,0,0,0
2004/3/3 20:30,0,0,0,0
2004/3/3 20:45,0,0,0,0
2004/3/3 21:00,0,0,0,0
2004/3/3 21:15,0,0,0,0
2004/3/3 21:30,0,0,0,0
2004/3/3 21:45,0,0,0,0
2004/3/3 22:00,0,0,0,0
2004/3/3 22:15,0,0,0,0
2004/3/3 22:30,0,0,0,0
2004/3/3 22:45,0,0,0,0
2004/3/3 23:00,0,0,0,0
2004/3/3 23:15,0,0,0,0
2004/3/3 23:30,0,0,0,0
2004/3/3 23:45,0,0,0,0
2004/3/4 0:00,0,0,0,0
2004/3/4 0:15,0,0,0,0
2004/3/4 0:30,0,0,0,0
2004/3/4 0:45,0,0,0,0
2004/3/4 1:00,0,0,0,0
2004/3/4 1:15,0,0,0,0
2004/3/4 1:30,0,0,0,0
2004/3/4 1:45,0,0,0,0
2004/3/4 2:00,0,0,0,0
2004/3/4 2:15,0,0,0,0
2004/3/4 2:30,0,0,0,0
2004/3/4 2:45,0,0,0,0
2004/3/4 3:00,0,0,0,0
2004/3/4 3:15,0,0,0,0
2004/3/4 3:30,0,0,0,0
2004/3/4 3:45,0,0,0,0
2004/3/4 4:00,0,0,0,0
2004/3/4 4:15,0,0,0,0
2004/3/4 4:30,0,0,0,0
2004/3/4 4:45,0,0,0,0
2004/3/4 5:00,0,0,0,0
2004/3/4 5:15,0,0,0,0
2004/3/4 5:30,0,0,0,0
2004/3/4 5:45,0,0,0,0
2004/3/4 6:00,0,0,0,0
2004/3/4 6:15,0,0,0,0
2004/3/4 6:30,0,0,0,0
2004/3/4 6:45,0,0,0,0
2004/3/4 7:00,0,0,0,0
2004/3/4 7:15,0,0,0,0
2004/3/4 7:30,0,0,0,0
2004/3/4 7:45,0,0,0,0
2004/3/4 8:00,0,0,0,0
2004/3/4 8:15,0,0,0,0
2004/3/4 8:30,0.003319395,0,0.487287186,0
2004/3/4 8:45,0.017925653,0,2.631485787,0
2004/3/4 9:00,0.005659522,0,0.830817903,0
2004/3/4 9:15,0.00565799,0,0.830592932,0
2004/3/4 9:30,0.001886507,0,0.276939301,0
2004/3/4 9:45,0,0,0,0
2004/3/4 10:00,0,0,0,0
2004/3/4 10:15,0,0,0,0
2004/3/4 10:30,0,0,0,0
2004/3/4 10:45,0,0,0,0
2004/3/4 11:00,0,0,0,0
2004/3/4 11:15,0,0,0,0
2004/3/4 11:30,0,0,0,0
2004/3/4 11:45,0,0,0,0
2004/3/4 12:00,0,0,0,0
2004/3/4 12:15,0,0,0,0
2004/3/4 12:30,0,0,0,0
2004/3/4 12:45,0,0,0,0
2004/3/4 13:00,0,0,0,0
2004/3/4 13:15,0,0,0,0
2004/3/4 13:30,0,0,0,0
2004/3/4 13:45,0,0,0,0
2004/3/4 14:00,0,0,0,0
2004/3/4 14:15,0,0,0,0
2004/3/4 14:30,0,0,0,0
2004/3/4 14:45,0,0,0,0
2004/3/4 15:00,0,0,0,0
2004/3/4 15:15,0,0,0,0
2004/3/4 15:30,0,0,0,0
2004/3/4 15:45,0,0,0,0
2004/3/4 16:00,0,0,0,0
2004/3/4 16:15,0,0,0,0
2004/3/4 16:30,0,0,0,0
2004/3/4 16:45,0,0,0,0
2004/3/4 17:00,0,0,0,0
2004/3/4 17:15,0,0,0,0
2004/3/4 17:30,0,0,0,0
2004/3/4 17:45,0,0,0,0
2004/3/4 18:00,0,0,0,0
2004/3/4 18:15,0,0,0,0
2004/3/4 18:30,0,0,0,0
2004/3/4 18:45,0,0,0,0
2004/3/4 19:00,0,0,0,0
2004/3/4 19:15,0,0,0,0
2004/3/4 19:30,0,0,0,0
2004/3/4 19:45,0,0,0,0
2004/3/4 20:00,0,0,0,0
2004/3/4 20:15,0.004404405,0,0.646566654,0
2004/3/4 20:30,0.01527596,0,2.242510928,0
2004/3/4 20:45,0.008143705,0,1.195495894,0
2004/3/4 21:00,0.00994899,0,1.460511732,0
2004/3/4 21:15,0.01449132,0,2.127325776,0
2004/3/4 21:30,0.009645555,0,1.415967474,0
2004/3/4 21:45,0.011976487,0,1.758148365,0
2004/3/4 22:00,0.012433173,0,1.825189723,0
2004/3/4 22:15,0.013367998,0,1.962422033,0
2004/3/4 22:30,0.003777613,0,0.554553515,0
2004/3/4 22:45,0,0,0,0
2004/3/4 23:00,0,0,0,0
2004/3/4 23:15,0,0,0,0
2004/3/4 23:30,0,0,0,0
2004/3/4 23:45,0,0,0,0
2004/3/5 0:00,0,0,0,0
2004/3/5 0:15,0,0,0,0
2004/3/5 0:30,0,0,0,0
2004/3/5 0:45,0,0,0,0
2004/3/5 1:00,0,0,0,0
2004/3/5 1:15,0,0,0,0
2004/3/5 1:30,0,0,0,0
2004/3/5 1:45,0,0,0,0
2004/3/5 2:00,0,0,0,0
2004/3/5 2:15,0,0,0,0
2004/3/5 2:30,0,0,0,0
2004/3/5 2:45,0,0,0,0
2004/3/5 3:00,0,0,0,0
2004/3/5 3:15,0,0,0,0
2004/3/5 3:30,0,0,0,0
2004/3/5 3:45,0,0,0,0
2004/3/5 4:00,0,0,0,0
2004/3/5 4:15,0,0,0,0
2004/3/5 4:30,0,0,0,0
2004/3/5 4:45,0,0,0,0
2004/3/5 5:00,0,0,0,0
2004/3/5 5:15,0,0,0,0
2004/3/5 5:30,0,0,0,0
2004/3/5 5:45,0,0,0,0
2004/3/5 6:00,0,0,0,0
2004/3/5 6:15,0,0,0,0
2004/3/5 6:30,0,0,0,0
2004/3/5 6:45,0,0,0,0
2004/3/5 7:00,0,0,0,0
2004/3/5 7:15,0,0,0,0
2004/3/5 7:30,0,0,0,0
2004/3/5 7:45,0,0,0,0
2004/3/5 8:00,0,0,0,0
2004/3/5 8:15,0,0,0,0
2004/3/5 8:30,0,0,0,0
2004/3/5 8:45,0.001880377,0,0.276039417,0
2004/3/5 9:00,0.013395583,0,1.966471511,0
2004/3/5 9:15,0.008836395,0,1.297182786,0
2004/3/5 9:30,0.006936095,0,1.018218746,0
2004/3/5 9:45,0.005679445,0,0.833742526,0
2004/3/5 10:00,0.00566412,0,0.831492816,0
2004/3/5 10:15,0.005659522,0,0.830817903,0
2004/3/5 10:30,0.003771483,0,0.553653631,0
2004/3/5 10:45,0,0,0,0
2004/3/5 11:00,0,0,0,0
2004/3/5 11:15,0,0,0,0
2004/3/5 11:30,0,0,0,0
2004/3/5 11:45,0,0,0,0
2004/3/5 12:00,0,0,0,0
2004/3/5 12:15,0,0,0,0
2004/3/5 12:30,0,0,0,0
2004/3/5 12:45,0,0,0,0
2004/3/5 13:00,0,0,0,0
2004/3/5 13:15,0,0,0,0
2004/3/5 13:30,0,0,0,0
2004/3/5 13:45,0,0,0,0
2004/3/5 14:00,0,0,0,0
2004/3/5 14:15,0,0,0,0
2004/3/5 14:30,0,0,0,0
2004/3/5 14:45,0,0,0,0
2004/3/5 15:00,0,0,0,0
2004/3/5 15:15,0,0,0,0
2004/3/5 15:30,0,0,0,0
2004/3/5 15:45,0,0,0,0
2004/3/5 16:00,0,0,0,0
2004/3/5 16:15,0,0,0,0
2004/3/5 16:30,0,0,0,0
2004/3/5 16:45,0,0,0,0
2004/3/5 17:00,0,0,0,0
2004/3/5 17:15,0,0,0,0
2004/3/5 17:30,0,0,0,0
2004/3/5 17:45,0,0,0,0
2004/3/5 18:00,0,0,0,0
2004/3/5 18:15,0,0,0,0
2004/3/5 18:30,0,0,0,0
2004/3/5 18:45,0,0,0,0
2004/3/5 19:00,0,0,0,0
2004/3/5 19:15,0,0,0,0
2004/3/5 19:30,0,0,0,0
2004/3/5 19:45,0,0,0,0
2004/3/5 20:00,0,0,0,0
2004/3/5 20:15,0,0,0,0
2004/3/5 20:30,0,0,0,0
2004/3/5 20:45,0.015084398,0,2.214389553,0
2004/3/5 21:00,0.00565799,0,0.830592932,0
2004/3/5 21:15,0.005659522,0,0.830817903,0
2004/3/5 21:30,0.006956017,0,1.021143369,0
2004/3/5 21:45,0.007495458,0,1.100333161,0
2004/3/5 22:00,0.00704337,0,1.033966716,0
2004/3/5 22:15,0.007585875,0,1.11360645,0
2004/3/5 22:30,0.008323008,0,1.221817501,0
2004/3/5 22:45,0.017616088,0,2.586041645,0
2004/3/5 23:00,0.00692077,0,1.015969036,0
2004/3/5 23:15,0.009717582,0,1.426541111,0
2004/3/5 23:30,0.006802768,0,0.998646269,0
2004/3/5 23:45,0.010284608,0,1.509780381,0
2004/3/6 0:00,0.011274603,0,1.655111647,0
2004/3/6 0:15,0.00905401,0,1.329128668,0
2004/3/6 0:30,0.007170568,0,1.052639309,0
2004/3/6 0:45,0.00565799,0,0.830592932,0
2004/3/6 1:00,0.005662587,0,0.831267845,0
2004/3/6 1:15,0.00744795,0,1.09335906,0
2004/3/6 1:30,0.007844867,0,1.151626549,0
2004/3/6 1:45,0.00996125,0,1.4623115,0
2004/3/6 2:00,0.01143245,0,1.67828366,0
2004/3/6 2:15,0.015542615,0,2.281655882,0
2004/3/6 2:30,0.016633755,0,2.441835234,0
2004/3/6 2:45,0.01589509,0,2.333399212,0
2004/3/6 3:00,0,0,0,0
2004/3/6 3:15,0,0,0,0
2004/3/6 3:30,0,0,0,0
2004/3/6 3:45,0,0,0,0
2004/3/6 4:00,0.011417125,0,1.67603395,0
2004/3/6 4:15,0,0,0,0
2004/3/6 4:30,0,0,0,0
2004/3/6 4:45,0,0,0,0
2004/3/6 5:00,0,0,0,0
2004/3/6 5:15,0,0,0,0
2004/3/6 5:30,0,0,0,0
2004/3/6 5:45,0,0,0,0
2004/3/6 6:00,0,0,0,0
2004/3/6 6:15,0,0,0,0
2004/3/6 6:30,0,0,0,0
2004/3/6 6:45,0,0,0,0
2004/3/6 7:00,0,0,0,0
2004/3/6 7:15,0.003667273,0,0.538355603,0
2004/3/6 7:30,0.026644045,0,3.911345806,0
2004/3/6 7:45,0.02663485,0,3.909995978,0
2004/3/6 8:00,0.026633318,0,3.909771011,0
2004/3/6 8:15,0.026631785,0,3.90954604,0
2004/3/6 8:30,0.026630253,0,3.909321068,0
2004/3/6 8:45,0.025514592,0,3.745542179,0
2004/3/6 9:00,0.024756005,0,3.634181536,0
2004/3/6 9:15,0.022064935,0,3.239132458,0
2004/3/6 9:30,0.018501873,0,2.716074883,0
2004/3/6 9:45,0.017416862,0,2.556795415,0
2004/3/6 10:00,0.017294263,0,2.538797735,0
2004/3/6 10:15,0.0114631,0,1.68278308,0
2004/3/6 10:30,0,0,0,0
2004/3/6 10:45,0,0,0,0
2004/3/6 11:00,0,0,0,0
2004/3/6 11:15,0,0,0,0
2004/3/6 11:30,0,0,0,0
2004/3/6 11:45,0,0,0,0
2004/3/6 12:00,0,0,0,0
2004/3/6 12:15,0,0,0,0
2004/3/6 12:30,0,0,0,0
2004/3/6 12:45,0,0,0,0
2004/3/6 13:00,0,0,0,0
2004/3/6 13:15,0,0,0,0
2004/3/6 13:30,0,0,0,0
2004/3/6 13:45,0,0,0,0
2004/3/6 14:00,0,0,0,0
2004/3/6 14:15,0,0,0,0
2004/3/6 14:30,0.007474003,0,1.097183567,0
2004/3/6 14:45,0.014627712,0,2.147348195,0
2004/3/6 15:00,0.009745167,0,1.430590589,0
2004/3/6 15:15,0.00808547,0,1.186946996,0
2004/3/6 15:30,0.005763733,0,0.846115931,0
2004/3/6 15:45,0.005659522,0,0.830817903,0
2004/3/6 16:00,0.005723888,0,0.840266685,0
2004/3/6 16:15,0.005661055,0,0.831042874,0
2004/3/6 16:30,0.007185893,0,1.054889019,0
2004/3/6 16:45,0.00707402,0,1.038466136,0
2004/3/6 17:00,0.007706942,0,1.131379159,0
2004/3/6 17:15,0.006698558,0,0.983348241,0
2004/3/6 17:30,0.00193708,0,0.284363344,0
2004/3/6 17:45,0.009496902,0,1.394145287,0
2004/3/6 18:00,0.01283009,0,1.883457212,0
2004/3/6 18:15,0.010945115,0,1.606742882,0
2004/3/6 18:30,0.007670162,0,1.125979855,0
2004/3/6 18:45,0.008313812,0,1.220467675,0
2004/3/6 19:00,0.00828163,0,1.215743284,0
2004/3/6 19:15,0.002760032,0,0.405172771,0
2004/3/6 19:30,0,0,0,0
2004/3/6 19:45,0.008566675,0,1.25758789,0
2004/3/6 20:00,0.005668718,0,0.832167729,0
2004/3/6 20:15,0.005673315,0,0.832842642,0
2004/3/6 20:30,0.007641045,0,1.121705406,0
2004/3/6 20:45,0.012019398,0,1.764447553,0
2004/3/6 21:00,0.009334457,0,1.370298361,0
2004/3/6 21:15,0.013348075,0,1.95949741,0
2004/3/6 21:30,0.010063928,0,1.477384557,0
2004/3/6 21:45,0.009204195,0,1.351175826,0
2004/3/6 22:00,0.01518401,0,2.229012668,0
2004/3/6 22:15,0.013574885,0,1.992793118,0
2004/3/6 22:30,0.006612738,0,0.970749865,0
2004/3/6 22:45,0.00565799,0,0.830592932,0
2004/3/6 23:00,0.005659522,0,0.830817903,0
2004/3/6 23:15,0.00565799,0,0.830592932,0
2004/3/6 23:30,0.005659522,0,0.830817903,0
2004/3/6 23:45,0.005659522,0,0.830817903,0
2004/3/7 0:00,0.005667185,0,0.831942758,0
2004/3/7 0:15,0.00565799,0,0.830592932,0
2004/3/7 0:30,0.0069269,0,1.01686892,0
2004/3/7 0:45,0.00596449,0,0.875587132,0
2004/3/7 1:00,0.00745408,0,1.094258944,0
2004/3/7 1:15,0.00708015,0,1.03936602,0
2004/3/7 1:30,0.00565799,0,0.830592932,0
2004/3/7 1:45,0.005659522,0,0.830817903,0
2004/3/7 2:00,0.00565799,0,0.830592932,0
2004/3/7 2:15,0.005659522,0,0.830817903,0
2004/3/7 2:30,0.005659522,0,0.830817903,0
2004/3/7 2:45,0.00565799,0,0.830592932,0
2004/3/7 3:00,0.005659522,0,0.830817903,0
2004/3/7 3:15,0.005659522,0,0.830817903,0
2004/3/7 3:30,0.008730653,0,1.281659787,0
2004/3/7 3:45,0.00749699,0,1.100558132,0
2004/3/7 4:00,0.0033102,0,0.48593736,0
2004/3/7 4:15,0,0,0,0
2004/3/7 4:30,0,0,0,0
2004/3/7 4:45,0,0,0,0
2004/3/7 5:00,0,0,0,0
2004/3/7 5:15,0,0,0,0
2004/3/7 5:30,0,0,0,0
2004/3/7 5:45,0,0,0,0
2004/3/7 6:00,0,0,0,0
2004/3/7 6:15,0,0,0,0
2004/3/7 6:30,0,0,0,0
2004/3/7 6:45,0,0,0,0
2004/3/7 7:00,0,0,0,0
2004/3/7 7:15,0,0,0,0
2004/3/7 7:30,0,0,0,0
2004/3/7 7:45,0,0,0,0
2004/3/7 8:00,0,0,0,0
2004/3/7 8:15,0,0,0,0
2004/3/7 8:30,0,0,0,0
2004/3/7 8:45,0,0,0,0
2004/3/7 9:00,0.01861681,0,2.732947708,0
2004/3/7 9:15,0.023013552,0,3.378389507,0
2004/3/7 9:30,0.017370888,0,2.550046285,0
2004/3/7 9:45,0.007375922,0,1.082785423,0
2004/3/7 10:00,0.005668718,0,0.832167729,0
2004/3/7 10:15,0.005659522,0,0.830817903,0
2004/3/7 10:30,0.005659522,0,0.830817903,0
2004/3/7 10:45,0.00565799,0,0.830592932,0
2004/3/7 11:00,0.00638133,0,0.936779244,0
2004/3/7 11:15,0.012445432,0,1.826989491,0
2004/3/7 11:30,0.00776671,0,1.140153028,0
2004/3/7 11:45,0.009536748,0,1.399994533,0
2004/3/7 12:00,0.005775992,0,0.847915699,0
2004/3/7 12:15,0.007991988,0,1.173223765,0
2004/3/7 12:30,0.006529983,0,0.958601431,0
2004/3/7 12:45,0.006202028,0,0.910457637,0
2004/3/7 13:00,0.008909955,0,1.307981394,0
2004/3/7 13:15,0.010753553,0,1.578621507,0
2004/3/7 13:30,0.007887778,0,1.157925737,0
2004/3/7 13:45,0.005661055,0,0.831042874,0
2004/3/7 14:00,0.005898593,0,0.865913379,0
2004/3/7 14:15,0.005457233,0,0.801121731,0
2004/3/7 14:30,0.01022484,0,1.501006512,0
2004/3/7 14:45,0.00565799,0,0.830592932,0
2004/3/7 15:00,0.005659522,0,0.830817903,0
2004/3/7 15:15,0.00565799,0,0.830592932,0
2004/3/7 15:30,0.012512863,0,1.836888215,0
2004/3/7 15:45,0.006416578,0,0.941953577,0
2004/3/7 16:00,0.006097817,0,0.895159609,0
2004/3/7 16:15,0.009837118,0,1.444088849,0
2004/3/7 16:30,0.005671783,0,0.832617671,0
2004/3/7 16:45,0.005832695,0,0.856239626,0
2004/3/7 17:00,0.001889573,0,0.277389243,0
2004/3/7 17:15,0,0,0,0
2004/3/7 17:30,0,0,0,0
2004/3/7 17:45,0,0,0,0
2004/3/7 18:00,0,0,0,0
2004/3/7 18:15,0,0,0,0
2004/3/7 18:30,0,0,0,0
2004/3/7 18:45,0,0,0,0
2004/3/7 19:00,0,0,0,0
2004/3/7 19:15,0,0,0,0
2004/3/7 19:30,0,0,0,0
2004/3/7 19:45,0,0,0,0
2004/3/7 20:00,0,0,0,0
2004/3/7 20:15,0,0,0,0
2004/3/7 20:30,0.015211595,0,2.233062146,0
2004/3/7 20:45,0.025946757,0,3.808984,0
2004/3/7 21:00,0.0212711,0,3.12259748,0
2004/3/7 21:15,0.016549468,0,2.429461829,0
2004/3/7 21:30,0.009614905,0,1.411468054,0
2004/3/7 21:45,0.008785823,0,1.289758743,0
2004/3/7 22:00,0.008188148,0,1.202020053,0
2004/3/7 22:15,0.007553693,0,1.108882059,0
2004/3/7 22:30,0.008522233,0,1.251063731,0
2004/3/7 22:45,0.009987302,0,1.466136007,0
2004/3/7 23:00,0.018511067,0,2.717424709,0
2004/3/7 23:15,0.019255862,0,2.826760615,0
2004/3/7 23:30,0.017418395,0,2.557020386,0
2004/3/7 23:45,0.020937015,0,3.073553802,0
2004/3/8 0:00,0.018848217,0,2.766918329,0
2004/3/8 0:15,0.020035905,0,2.941270854,0
2004/3/8 0:30,0.022458787,0,3.296950005,0
2004/3/8 0:45,0.022995163,0,3.375689855,0
2004/3/8 1:00,0.018501873,0,2.716074883,0
2004/3/8 1:15,0.018066643,0,2.652183119,0
2004/3/8 1:30,0.016719575,0,2.45443361,0
2004/3/8 1:45,0.019980735,0,2.933171898,0
2004/3/8 2:00,0.01715174,0,2.517875432,0
2004/3/8 2:15,0.015990105,0,2.347347414,0
2004/3/8 2:30,0.017481228,0,2.566244197,0
2004/3/8 2:45,0.018740942,0,2.751170359,0
2004/3/8 3:00,0.012473017,0,1.831038969,0
2004/3/8 3:15,0,0,0,0
2004/3/8 3:30,0,0,0,0
2004/3/8 3:45,0,0,0,0
2004/3/8 4:00,0,0,0,0
2004/3/8 4:15,0,0,0,0
2004/3/8 4:30,0,0,0,0
2004/3/8 4:45,0,0,0,0
2004/3/8 5:00,0,0,0,0
2004/3/8 5:15,0,0,0,0
2004/3/8 5:30,0,0,0,0
2004/3/8 5:45,0,0,0,0
2004/3/8 6:00,0,0,0,0
2004/3/8 6:15,0,0,0,0
2004/3/8 6:30,0,0,0,0
2004/3/8 6:45,0,0,0,0
2004/3/8 7:00,0,0,0,0
2004/3/8 7:15,0,0,0,0
2004/3/8 7:30,0,0,0,0
2004/3/8 7:45,0,0,0,0
2004/3/8 8:00,0.023995885,0,3.522595918,0
2004/3/8 8:15,0.026636382,0,3.91022095,0
2004/3/8 8:30,0.026633318,0,3.909771011,0
2004/3/8 8:45,0.026633318,0,3.909771011,0
2004/3/8 9:00,0.023126957,0,3.395037361,0
2004/3/8 9:15,0.015682073,0,2.302128243,0
2004/3/8 9:30,0.015749503,0,2.312026967,0
2004/3/8 9:45,0.011807912,0,1.733401555,0
2004/3/8 10:00,0.014016245,0,2.057584766,0
2004/3/8 10:15,0.014112793,0,2.071757939,0
2004/3/8 10:30,0.011214835,0,1.646337778,0
2004/3/8 10:45,0.01222935,0,1.79526858,0
2004/3/8 11:00,0.012053113,0,1.769396915,0
2004/3/8 11:15,0.014745715,0,2.164670962,0
2004/3/8 11:30,0.01165926,0,1.711579368,0
2004/3/8 11:45,0.012727412,0,1.868384155,0
2004/3/8 12:00,0.013058432,0,1.916977891,0
2004/3/8 12:15,0.01295269,0,1.901454892,0
2004/3/8 12:30,0.01389058,0,2.039137144,0
2004/3/8 12:45,0.012298313,0,1.805392275,0
2004/3/8 13:00,0.012638527,0,1.855335837,0
2004/3/8 13:15,0.013064563,0,1.917877775,0
2004/3/8 13:30,0.015648357,0,2.297178881,0
2004/3/8 13:45,0.014181755,0,2.081881634,0
2004/3/8 14:00,0.012797908,0,1.878732821,0
2004/3/8 14:15,0.014256848,0,2.092905213,0
2004/3/8 14:30,0.011231692,0,1.648812459,0
2004/3/8 14:45,0.007857128,0,1.153426317,0
2004/3/8 15:00,0.008617247,0,1.265011933,0
2004/3/8 15:15,0.011588765,0,1.701230702,0
2004/3/8 15:30,0.00963636,0,1.414617648,0
2004/3/8 15:45,0.010820982,0,1.588520231,0
2004/3/8 16:00,0.01118112,0,1.641388416,0